Pecs, Hungary

2:03 AM CET on February 11, 2016 (GMT +0100)
Pecs

Weather History for LHPP - January, 2013

Change the Weather History Date:

Tuesday, January 15, 2013

  Actual Average Record
Temperature  
Mean Temperature 34 °F -  
Max Temperature 37 °F 38 °F - ()
Min Temperature 32 °F 27 °F - ()
Degree Days  
Heating Degree Days 30    
Moisture  
Dew Point 34 °F    
Average Humidity 98    
Maximum Humidity 100    
Minimum Humidity 93    
Precipitation  
Precipitation 0.02 in 0.05 in - ()
Sea Level Pressure  
Sea Level Pressure 29.85 in    
Wind  
Wind Speed 4 mph ()    
Max Wind Speed 10 mph    
Max Gust Speed -    
Visibility 0.4 miles    
Events Fog , Rain    
T = Trace of Precipitation, MM = Missing Value Source: Averaged Metar Reports

Daily Weather History Graph

Daily Weather History Graph

Search for Another Location

Airport or City:

Trip Planner

Search our weather history database for the weather conditions in past years. The results will help you decide how hot, cold, wet, or windy it might be!

Date:

Astronomy

Jan. 15, 2013 Rise Set
Actual Time 7:25 AM CET 4:28 PM CET
Civil Twilight 6:51 AM CET 5:01 PM CET
Nautical Twilight 6:14 AM CET 5:38 PM CET
Astronomical Twilight 5:38 AM CET 6:14 PM CET
Moon 9:05 AM CET (1/15) 9:16 PM CET (1/15)
Length of Visible Light 10h 10m
Length of Day
9h 03m
Waxing Crescent, 17% of the Moon is Illuminated
Jan 15
Waxing Crescent
Jan 19
First Quarter
Jan 27
Full
Feb 3
Last Quarter
Feb 10
New

Hourly Weather History & Observations

Time (CET) Temp. Windchill Dew Point Humidity Pressure Visibility Wind Dir Wind Speed Gust Speed Precip Events Conditions
12:45 AM 33.8 °F 27.7 °F 32.0 °F 93% 29.89 in 0.8 mi NW 6.9 mph - N/A Rain Light Rain
1:00 AM 33 °F - 33 °F 97% 29.91 in 1 mi NW 6.7 mph - - Rain Light Rain
1:45 AM 32.0 °F 27.5 °F 32.0 °F 100% 29.89 in 0.7 mi SSW 4.6 mph - N/A Rain Light Rain
1:54 AM 32.0 °F - 32.0 °F 100% 29.92 in - North - - N/A   Unknown
2:45 AM 32.0 °F - 32.0 °F 100% 29.92 in 0.7 mi NW 2.3 mph - N/A Rain Light Rain
3:37 AM 32.0 °F - 32.0 °F 100% 29.92 in 0.4 mi East 1.2 mph - N/A Rain Light Rain
3:45 AM 32.0 °F - 32.0 °F 100% 29.89 in 0.4 mi East 1.2 mph - N/A Rain Light Rain
4:38 AM 32.0 °F 28.7 °F 32.0 °F 100% 29.95 in 0.7 mi West 3.5 mph - N/A Rain Light Rain
4:45 AM 32.0 °F 28.7 °F 32.0 °F 100% 29.89 in 0.7 mi WNW 3.5 mph - N/A Rain Light Rain
5:15 AM 32.0 °F - 32.0 °F 100% 29.89 in 0.7 mi Calm Calm - N/A Rain Light Rain
5:45 AM 32.0 °F - 32.0 °F 100% 29.89 in 0.7 mi South 1.2 mph - N/A Rain Light Rain
6:00 AM - - - N/A% - 1.9 mi Variable 3.5 mph - N/A Rain Light Rain
6:02 AM 32.0 °F 27.5 °F 32.0 °F 100% 29.95 in 0.3 mi South 4.6 mph - N/A Rain Light Rain
6:15 AM 32.0 °F 27.5 °F 32.0 °F 100% 29.92 in 0.3 mi SW 4.6 mph - N/A Rain Light Rain
6:45 AM 32.0 °F - 32.0 °F 100% 29.89 in 0.2 mi NW 2.3 mph - N/A Rain Light Rain
7:00 AM 32 °F - 31 °F 97% 29.93 in 0 mi NW 2.2 mph - - Rain Light Rain
7:00 AM - - - N/A% - 0.5 mi Variable 3.5 mph - N/A Fog , Rain Light Fog
7:15 AM 32.0 °F - 32.0 °F 100% 29.92 in 0.2 mi Calm Calm - N/A Fog Fog
7:45 AM 32.0 °F - 32.0 °F 100% 29.92 in 0.1 mi WSW 2.3 mph - N/A Fog Fog
8:15 AM 32.0 °F - 32.0 °F 100% 29.89 in 0.2 mi Calm Calm - N/A Fog Fog
8:45 AM 33.8 °F 30.8 °F 32.0 °F 93% 29.89 in 0.2 mi East 3.5 mph - N/A Fog Fog
9:15 AM 33.8 °F 30.8 °F 33.8 °F 100% 29.89 in 0.2 mi ESE 3.5 mph - N/A Fog Fog
9:45 AM 33.8 °F - 33.8 °F 100% 29.89 in 0.2 mi ENE 2.3 mph - N/A Fog Fog
10:15 AM 33.8 °F 30.8 °F 33.8 °F 100% 29.89 in 0.3 mi SE 3.5 mph - N/A Fog Fog
10:45 AM 35.6 °F 32.8 °F 33.8 °F 93% 29.89 in 0.3 mi SE 3.5 mph - N/A Fog Fog
10:46 AM 35.6 °F 32.8 °F 33.8 °F 93% 29.92 in 0.7 mi ESE 3.5 mph - N/A   Overcast
10:57 AM 35.6 °F 29.9 °F 33.8 °F 93% 29.92 in 0.4 mi ESE 6.9 mph - N/A Fog Fog
12:00 PM - - - N/A% - 0.2 mi Variable 3.5 mph - N/A Fog Fog
12:15 PM 35.6 °F 31.7 °F 35.6 °F 100% 29.86 in 0.7 mi ENE 4.6 mph - N/A   Overcast
1:00 PM 36 °F - 35 °F 96% 29.87 in 1 mi East 6.7 mph - -   Mist
1:15 PM 37.4 °F 32.8 °F 35.6 °F 93% 29.83 in 0.8 mi East 5.8 mph - N/A   Overcast
2:15 PM 37.4 °F 31.4 °F 37.4 °F 100% 29.83 in 0.2 mi East 8.1 mph - N/A Fog Fog
2:45 PM 37.4 °F 30.3 °F 37.4 °F 100% 29.83 in 0.2 mi ESE 10.4 mph - N/A Fog Fog
3:00 PM - - - N/A% - 0.5 mi East 5.8 mph - N/A Fog Fog
3:15 PM 37.4 °F 30.8 °F 37.4 °F 100% 29.80 in 0.1 mi East 9.2 mph - N/A Fog Fog
3:45 PM 37.4 °F 32.1 °F 37.4 °F 100% 29.83 in 0.1 mi East 6.9 mph - N/A Fog Fog
4:15 PM 37.4 °F 34.9 °F 37.4 °F 100% 29.83 in 0.1 mi SSE 3.5 mph - N/A Fog Fog
4:45 PM 37.4 °F 34.9 °F 37.4 °F 100% 29.83 in 0.1 mi SW 3.5 mph - N/A Fog Fog
5:15 PM 37.4 °F - 37.4 °F 100% 29.83 in 0.1 mi WNW 1.2 mph - N/A Fog Fog
5:45 PM 35.6 °F 29.9 °F 33.8 °F 93% 29.80 in 0.1 mi NW 6.9 mph - N/A Fog Fog
6:15 PM 35.6 °F 31.7 °F 33.8 °F 93% 29.80 in 0.1 mi NNW 4.6 mph - N/A Fog Fog
6:45 PM 35.6 °F 32.8 °F 35.6 °F 100% 29.77 in 0.1 mi East 3.5 mph - N/A Fog Fog
7:00 PM 36 °F - 35 °F 95% 29.81 in 0 mi East 4.5 mph - - Fog Heavy Fog
7:15 PM 37.4 °F 30.8 °F 35.6 °F 93% 29.77 in 0.1 mi ENE 9.2 mph - N/A   Dust Whirls
7:45 PM 37.4 °F 32.1 °F 35.6 °F 93% 29.77 in 0.1 mi NE 6.9 mph - N/A Fog Fog
8:15 PM 37.4 °F 34.9 °F 35.6 °F 93% 29.74 in 0.1 mi NE 3.5 mph - N/A Fog Fog
8:45 PM 37.4 °F 34.9 °F 35.6 °F 93% 29.74 in 0.1 mi North 3.5 mph - N/A Fog Fog
9:45 PM 37.4 °F 34.9 °F 35.6 °F 93% 29.71 in 0.1 mi NNW 3.5 mph - N/A Fog Fog
10:45 PM 37.4 °F 34.9 °F 35.6 °F 93% 29.68 in 0.2 mi NE 3.5 mph - N/A Fog Fog
11:45 PM 37.4 °F 33.8 °F 37.4 °F 100% 29.68 in 1.2 mi NNE 4.6 mph - N/A   Overcast